owner,sensor,date,latitude,longitude,air_temperature,qcFlag 
WAVCIS,ioos:station:WAVCIS:CSI06:1,2010-07-01T00:00:00Z,28.8667,-90.4833,25.74,11111222 
WAVCIS,ioos:station:WAVCIS:CSI06:1,2010-07-01T01:00:00Z,28.8667,-90.4833,26.24,11111222 
WAVCIS,ioos:station:WAVCIS:CSI06:1,2010-07-01T02:00:00Z,28.8667,-90.4833,25.7,11111222 
WAVCIS,ioos:station:WAVCIS:CSI06:1,2010-07-01T03:00:00Z,28.8667,-90.4833,26.09,11111222 
WAVCIS,ioos:station:WAVCIS:CSI06:1,2010-07-01T04:00:00Z,28.8667,-90.4833,26.77,11111222 
WAVCIS,ioos:station:WAVCIS:CSI06:1,2010-07-01T05:00:00Z,28.8667,-90.4833,27.07,11111222 
WAVCIS,ioos:station:WAVCIS:CSI06:1,2010-07-01T06:00:00Z,28.8667,-90.4833,27.41,11111222 
WAVCIS,ioos:station:WAVCIS:CSI06:1,2010-07-01T07:00:00Z,28.8667,-90.4833,27.29,11111222 
WAVCIS,ioos:station:WAVCIS:CSI06:1,2010-07-01T08:00:00Z,28.8667,-90.4833,26.92,11111222 
WAVCIS,ioos:station:WAVCIS:CSI06:1,2010-07-01T09:00:00Z,28.8667,-90.4833,26.84,11111222 
WAVCIS,ioos:station:WAVCIS:CSI06:1,2010-07-01T10:00:00Z,28.8667,-90.4833,26.67,11111222 
WAVCIS,ioos:station:WAVCIS:CSI06:1,2010-07-01T11:00:00Z,28.8667,-90.4833,27.08,11111222 
WAVCIS,ioos:station:WAVCIS:CSI06:1,2010-07-01T12:00:00Z,28.8667,-90.4833,26.86,11111222 
WAVCIS,ioos:station:WAVCIS:CSI06:1,2010-07-01T13:00:00Z,28.8667,-90.4833,26.47,11111222 
WAVCIS,ioos:station:WAVCIS:CSI06:1,2010-07-01T14:00:00Z,28.8667,-90.4833,26.25,11111222 
WAVCIS,ioos:station:WAVCIS:CSI06:1,2010-07-01T15:00:00Z,28.8667,-90.4833,25.99,11111222 
WAVCIS,ioos:station:WAVCIS:CSI06:1,2010-07-01T16:00:00Z,28.8667,-90.4833,24.91,11111222 
WAVCIS,ioos:station:WAVCIS:CSI06:1,2010-07-01T17:00:00Z,28.8667,-90.4833,25.57,11111222 
WAVCIS,ioos:station:WAVCIS:CSI06:1,2010-07-01T18:00:00Z,28.8667,-90.4833,25.87,11111222 
WAVCIS,ioos:station:WAVCIS:CSI06:1,2010-07-01T19:00:00Z,28.8667,-90.4833,26.29,11111222 
WAVCIS,ioos:station:WAVCIS:CSI06:1,2010-07-01T20:00:00Z,28.8667,-90.4833,27.04,11111222 
WAVCIS,ioos:station:WAVCIS:CSI06:1,2010-07-01T21:00:00Z,28.8667,-90.4833,27.24,11111222 
WAVCIS,ioos:station:WAVCIS:CSI06:1,2010-07-01T22:00:00Z,28.8667,-90.4833,26.88,11111222 
WAVCIS,ioos:station:WAVCIS:CSI06:1,2010-07-01T23:00:00Z,28.8667,-90.4833,26.85,11111222 
WAVCIS,ioos:station:WAVCIS:CSI06:1,2010-07-02T00:00:00Z,28.8667,-90.4833,26.88,11111222 
WAVCIS,ioos:station:WAVCIS:CSI06:1,2010-07-02T01:00:00Z,28.8667,-90.4833,27.0,11111222 
WAVCIS,ioos:station:WAVCIS:CSI06:1,2010-07-02T02:00:00Z,28.8667,-90.4833,27.07,11111222 
WAVCIS,ioos:station:WAVCIS:CSI06:1,2010-07-02T03:00:00Z,28.8667,-90.4833,27.22,11111222 
WAVCIS,ioos:station:WAVCIS:CSI06:1,2010-07-02T04:00:00Z,28.8667,-90.4833,27.38,11111222 
WAVCIS,ioos:station:WAVCIS:CSI06:1,2010-07-02T05:00:00Z,28.8667,-90.4833,27.35,11111222 
WAVCIS,ioos:station:WAVCIS:CSI06:1,2010-07-02T06:00:00Z,28.8667,-90.4833,27.37,11111222 
WAVCIS,ioos:station:WAVCIS:CSI06:1,2010-07-02T07:00:00Z,28.8667,-90.4833,27.62,11111222 
WAVCIS,ioos:station:WAVCIS:CSI06:1,2010-07-02T08:00:00Z,28.8667,-90.4833,27.56,11111222 
WAVCIS,ioos:station:WAVCIS:CSI06:1,2010-07-02T09:00:00Z,28.8667,-90.4833,27.54,11111222 
WAVCIS,ioos:station:WAVCIS:CSI06:1,2010-07-02T10:00:00Z,28.8667,-90.4833,27.62,11111222 
WAVCIS,ioos:station:WAVCIS:CSI06:1,2010-07-02T11:00:00Z,28.8667,-90.4833,27.72,11111222 
WAVCIS,ioos:station:WAVCIS:CSI06:1,2010-07-02T12:00:00Z,28.8667,-90.4833,27.82,11111222 
WAVCIS,ioos:station:WAVCIS:CSI06:1,2010-07-02T13:00:00Z,28.8667,-90.4833,27.85,11111222 
WAVCIS,ioos:station:WAVCIS:CSI06:1,2010-07-02T14:00:00Z,28.8667,-90.4833,27.89,11111222 
WAVCIS,ioos:station:WAVCIS:CSI06:1,2010-07-02T15:00:00Z,28.8667,-90.4833,27.87,11111222 
WAVCIS,ioos:station:WAVCIS:CSI06:1,2010-07-02T16:00:00Z,28.8667,-90.4833,27.96,11111222 
WAVCIS,ioos:station:WAVCIS:CSI06:1,2010-07-02T17:00:00Z,28.8667,-90.4833,27.52,11111222 
WAVCIS,ioos:station:WAVCIS:CSI06:1,2010-07-02T18:00:00Z,28.8667,-90.4833,25.98,11111222 
WAVCIS,ioos:station:WAVCIS:CSI06:1,2010-07-02T19:00:00Z,28.8667,-90.4833,24.87,11111222 
WAVCIS,ioos:station:WAVCIS:CSI06:1,2010-07-02T20:00:00Z,28.8667,-90.4833,26.37,11111222 
WAVCIS,ioos:station:WAVCIS:CSI06:1,2010-07-02T21:00:00Z,28.8667,-90.4833,27.81,11111222 
WAVCIS,ioos:station:WAVCIS:CSI06:1,2010-07-02T22:00:00Z,28.8667,-90.4833,27.94,11111222 
WAVCIS,ioos:station:WAVCIS:CSI06:1,2010-07-02T23:00:00Z,28.8667,-90.4833,27.7,11111222 
WAVCIS,ioos:station:WAVCIS:CSI06:1,2010-07-03T00:00:00Z,28.8667,-90.4833,27.6,11111222 
WAVCIS,ioos:station:WAVCIS:CSI06:1,2010-07-03T01:00:00Z,28.8667,-90.4833,27.81,11111222 
WAVCIS,ioos:station:WAVCIS:CSI06:1,2010-07-03T02:00:00Z,28.8667,-90.4833,27.47,11111222 
WAVCIS,ioos:station:WAVCIS:CSI06:1,2010-07-03T03:00:00Z,28.8667,-90.4833,27.44,11111222 
WAVCIS,ioos:station:WAVCIS:CSI06:1,2010-07-03T04:00:00Z,28.8667,-90.4833,27.52,11111222 
WAVCIS,ioos:station:WAVCIS:CSI06:1,2010-07-03T05:00:00Z,28.8667,-90.4833,27.51,11111222 
WAVCIS,ioos:station:WAVCIS:CSI06:1,2010-07-03T06:00:00Z,28.8667,-90.4833,27.37,11111222 
WAVCIS,ioos:station:WAVCIS:CSI06:1,2010-07-03T07:00:00Z,28.8667,-90.4833,27.1,11111222 
WAVCIS,ioos:station:WAVCIS:CSI06:1,2010-07-03T08:00:00Z,28.8667,-90.4833,27.04,11111222 
WAVCIS,ioos:station:WAVCIS:CSI06:1,2010-07-03T09:00:00Z,28.8667,-90.4833,27.01,11111222 
WAVCIS,ioos:station:WAVCIS:CSI06:1,2010-07-03T10:00:00Z,28.8667,-90.4833,27.04,11111222 
WAVCIS,ioos:station:WAVCIS:CSI06:1,2010-07-03T11:00:00Z,28.8667,-90.4833,27.31,11111222 
WAVCIS,ioos:station:WAVCIS:CSI06:1,2010-07-03T12:00:00Z,28.8667,-90.4833,27.13,11111222 
WAVCIS,ioos:station:WAVCIS:CSI06:1,2010-07-03T13:00:00Z,28.8667,-90.4833,27.45,11111222 
WAVCIS,ioos:station:WAVCIS:CSI06:1,2010-07-03T14:00:00Z,28.8667,-90.4833,26.93,11111222 
WAVCIS,ioos:station:WAVCIS:CSI06:1,2010-07-03T15:00:00Z,28.8667,-90.4833,27.2,11111222 
WAVCIS,ioos:station:WAVCIS:CSI06:1,2010-07-03T16:00:00Z,28.8667,-90.4833,28.39,11111222 
WAVCIS,ioos:station:WAVCIS:CSI06:1,2010-07-03T17:00:00Z,28.8667,-90.4833,28.47,11111222 
WAVCIS,ioos:station:WAVCIS:CSI06:1,2010-07-03T18:00:00Z,28.8667,-90.4833,26.62,11111222 
WAVCIS,ioos:station:WAVCIS:CSI06:1,2010-07-03T19:00:00Z,28.8667,-90.4833,28.78,11111222 
WAVCIS,ioos:station:WAVCIS:CSI06:1,2010-07-03T20:00:00Z,28.8667,-90.4833,27.15,11111222 
WAVCIS,ioos:station:WAVCIS:CSI06:1,2010-07-03T21:00:00Z,28.8667,-90.4833,26.8,11111222 
WAVCIS,ioos:station:WAVCIS:CSI06:1,2010-07-03T22:00:00Z,28.8667,-90.4833,27.36,11111222 
WAVCIS,ioos:station:WAVCIS:CSI06:1,2010-07-03T23:00:00Z,28.8667,-90.4833,26.9,11111222 
WAVCIS,ioos:station:WAVCIS:CSI06:1,2010-07-04T00:00:00Z,28.8667,-90.4833,27.18,11111222 
WAVCIS,ioos:station:WAVCIS:CSI06:1,2010-07-04T01:00:00Z,28.8667,-90.4833,25.96,11111222 
WAVCIS,ioos:station:WAVCIS:CSI06:1,2010-07-04T02:00:00Z,28.8667,-90.4833,27.32,11111222 
WAVCIS,ioos:station:WAVCIS:CSI06:1,2010-07-04T03:00:00Z,28.8667,-90.4833,26.92,11111222 
WAVCIS,ioos:station:WAVCIS:CSI06:1,2010-07-04T04:00:00Z,28.8667,-90.4833,27.09,11111222 
WAVCIS,ioos:station:WAVCIS:CSI06:1,2010-07-04T05:00:00Z,28.8667,-90.4833,27.11,11111222 
WAVCIS,ioos:station:WAVCIS:CSI06:1,2010-07-04T06:00:00Z,28.8667,-90.4833,27.2,11111222 
WAVCIS,ioos:station:WAVCIS:CSI06:1,2010-07-04T07:00:00Z,28.8667,-90.4833,27.02,11111222 
WAVCIS,ioos:station:WAVCIS:CSI06:1,2010-07-04T08:00:00Z,28.8667,-90.4833,27.08,11111222 
WAVCIS,ioos:station:WAVCIS:CSI06:1,2010-07-04T09:00:00Z,28.8667,-90.4833,26.99,11111222 
WAVCIS,ioos:station:WAVCIS:CSI06:1,2010-07-04T10:00:00Z,28.8667,-90.4833,27.03,11111222 
WAVCIS,ioos:station:WAVCIS:CSI06:1,2010-07-04T11:00:00Z,28.8667,-90.4833,26.87,11111222 
WAVCIS,ioos:station:WAVCIS:CSI06:1,2010-07-04T12:00:00Z,28.8667,-90.4833,27.16,11111222 
WAVCIS,ioos:station:WAVCIS:CSI06:1,2010-07-04T13:00:00Z,28.8667,-90.4833,27.33,11111222 
WAVCIS,ioos:station:WAVCIS:CSI06:1,2010-07-04T14:00:00Z,28.8667,-90.4833,27.39,11111222 
WAVCIS,ioos:station:WAVCIS:CSI06:1,2010-07-04T15:00:00Z,28.8667,-90.4833,27.42,11111222 
WAVCIS,ioos:station:WAVCIS:CSI06:1,2010-07-04T16:00:00Z,28.8667,-90.4833,27.21,11111222 
WAVCIS,ioos:station:WAVCIS:CSI06:1,2010-07-04T17:00:00Z,28.8667,-90.4833,27.56,11111222 
WAVCIS,ioos:station:WAVCIS:CSI06:1,2010-07-04T18:00:00Z,28.8667,-90.4833,27.32,11111222 
WAVCIS,ioos:station:WAVCIS:CSI06:1,2010-07-04T19:00:00Z,28.8667,-90.4833,27.16,11111222 
WAVCIS,ioos:station:WAVCIS:CSI06:1,2010-07-04T20:00:00Z,28.8667,-90.4833,27.4,11111222 
WAVCIS,ioos:station:WAVCIS:CSI06:1,2010-07-04T21:00:00Z,28.8667,-90.4833,27.46,11111222 
WAVCIS,ioos:station:WAVCIS:CSI06:1,2010-07-04T22:00:00Z,28.8667,-90.4833,27.55,11111222 
WAVCIS,ioos:station:WAVCIS:CSI06:1,2010-07-04T23:00:00Z,28.8667,-90.4833,27.63,11111222 
WAVCIS,ioos:station:WAVCIS:CSI06:1,2010-07-05T00:00:00Z,28.8667,-90.4833,27.07,11111222 
WAVCIS,ioos:station:WAVCIS:CSI06:1,2010-07-05T01:00:00Z,28.8667,-90.4833,27.07,11111222 
WAVCIS,ioos:station:WAVCIS:CSI06:1,2010-07-05T02:00:00Z,28.8667,-90.4833,27.06,11111222 
WAVCIS,ioos:station:WAVCIS:CSI06:1,2010-07-05T03:00:00Z,28.8667,-90.4833,27.14,11111222 
WAVCIS,ioos:station:WAVCIS:CSI06:1,2010-07-05T04:00:00Z,28.8667,-90.4833,26.98,11111222 
WAVCIS,ioos:station:WAVCIS:CSI06:1,2010-07-05T05:00:00Z,28.8667,-90.4833,27.19,11111222 
WAVCIS,ioos:station:WAVCIS:CSI06:1,2010-07-05T06:00:00Z,28.8667,-90.4833,26.71,11111222 
WAVCIS,ioos:station:WAVCIS:CSI06:1,2010-07-05T07:00:00Z,28.8667,-90.4833,26.67,11111222 
WAVCIS,ioos:station:WAVCIS:CSI06:1,2010-07-05T08:00:00Z,28.8667,-90.4833,25.31,11111222 
WAVCIS,ioos:station:WAVCIS:CSI06:1,2010-07-05T09:00:00Z,28.8667,-90.4833,24.95,11111222 
WAVCIS,ioos:station:WAVCIS:CSI06:1,2010-07-05T10:00:00Z,28.8667,-90.4833,24.94,11111222 
WAVCIS,ioos:station:WAVCIS:CSI06:1,2010-07-05T11:00:00Z,28.8667,-90.4833,25.06,11111222 
WAVCIS,ioos:station:WAVCIS:CSI06:1,2010-07-05T12:00:00Z,28.8667,-90.4833,24.91,11111222 
WAVCIS,ioos:station:WAVCIS:CSI06:1,2010-07-05T13:00:00Z,28.8667,-90.4833,24.97,11111222 
WAVCIS,ioos:station:WAVCIS:CSI06:1,2010-07-05T14:00:00Z,28.8667,-90.4833,24.99,11111222 
WAVCIS,ioos:station:WAVCIS:CSI06:1,2010-07-05T15:00:00Z,28.8667,-90.4833,25.04,11111222 
WAVCIS,ioos:station:WAVCIS:CSI06:1,2010-07-05T16:00:00Z,28.8667,-90.4833,24.63,11111222 
WAVCIS,ioos:station:WAVCIS:CSI06:1,2010-07-05T17:00:00Z,28.8667,-90.4833,24.61,11111222 
WAVCIS,ioos:station:WAVCIS:CSI06:1,2010-07-05T18:00:00Z,28.8667,-90.4833,24.32,11111222 
WAVCIS,ioos:station:WAVCIS:CSI06:1,2010-07-05T19:00:00Z,28.8667,-90.4833,24.17,11111222 
WAVCIS,ioos:station:WAVCIS:CSI06:1,2010-07-05T20:00:00Z,28.8667,-90.4833,24.35,11111222 
WAVCIS,ioos:station:WAVCIS:CSI06:1,2010-07-05T21:00:00Z,28.8667,-90.4833,25.46,11111222 
WAVCIS,ioos:station:WAVCIS:CSI06:1,2010-07-05T22:00:00Z,28.8667,-90.4833,26.09,11111222 
WAVCIS,ioos:station:WAVCIS:CSI06:1,2010-07-05T23:00:00Z,28.8667,-90.4833,26.51,11111222 
WAVCIS,ioos:station:WAVCIS:CSI06:1,2010-07-06T00:00:00Z,28.8667,-90.4833,26.26,11111222 
WAVCIS,ioos:station:WAVCIS:CSI06:1,2010-07-06T01:00:00Z,28.8667,-90.4833,26.4,11111222 
WAVCIS,ioos:station:WAVCIS:CSI06:1,2010-07-06T02:00:00Z,28.8667,-90.4833,26.51,11111222 
WAVCIS,ioos:station:WAVCIS:CSI06:1,2010-07-06T03:00:00Z,28.8667,-90.4833,26.56,11111222 
WAVCIS,ioos:station:WAVCIS:CSI06:1,2010-07-06T04:00:00Z,28.8667,-90.4833,26.95,11111222 
WAVCIS,ioos:station:WAVCIS:CSI06:1,2010-07-06T05:00:00Z,28.8667,-90.4833,26.83,11111222 
WAVCIS,ioos:station:WAVCIS:CSI06:1,2010-07-06T06:00:00Z,28.8667,-90.4833,26.9,11111222 
WAVCIS,ioos:station:WAVCIS:CSI06:1,2010-07-06T07:00:00Z,28.8667,-90.4833,27.05,11111222 
WAVCIS,ioos:station:WAVCIS:CSI06:1,2010-07-06T08:00:00Z,28.8667,-90.4833,27.24,11111222 
WAVCIS,ioos:station:WAVCIS:CSI06:1,2010-07-06T09:00:00Z,28.8667,-90.4833,26.57,11111222 
WAVCIS,ioos:station:WAVCIS:CSI06:1,2010-07-06T10:00:00Z,28.8667,-90.4833,27.38,11111222 
WAVCIS,ioos:station:WAVCIS:CSI06:1,2010-07-06T11:00:00Z,28.8667,-90.4833,27.23,11111222 
WAVCIS,ioos:station:WAVCIS:CSI06:1,2010-07-06T12:00:00Z,28.8667,-90.4833,27.38,11111222 
WAVCIS,ioos:station:WAVCIS:CSI06:1,2010-07-06T13:00:00Z,28.8667,-90.4833,27.51,11111222 
WAVCIS,ioos:station:WAVCIS:CSI06:1,2010-07-06T14:00:00Z,28.8667,-90.4833,27.62,11111222 
WAVCIS,ioos:station:WAVCIS:CSI06:1,2010-07-06T15:00:00Z,28.8667,-90.4833,27.36,11111222 
WAVCIS,ioos:station:WAVCIS:CSI06:1,2010-07-06T16:00:00Z,28.8667,-90.4833,27.41,11111222 
WAVCIS,ioos:station:WAVCIS:CSI06:1,2010-07-06T17:00:00Z,28.8667,-90.4833,26.84,11111222 
WAVCIS,ioos:station:WAVCIS:CSI06:1,2010-07-06T18:00:00Z,28.8667,-90.4833,27.13,11111222 
WAVCIS,ioos:station:WAVCIS:CSI06:1,2010-07-06T19:00:00Z,28.8667,-90.4833,27.17,11111222 
WAVCIS,ioos:station:WAVCIS:CSI06:1,2010-07-06T20:00:00Z,28.8667,-90.4833,27.54,11111222 
WAVCIS,ioos:station:WAVCIS:CSI06:1,2010-07-06T21:00:00Z,28.8667,-90.4833,26.03,11111222 
WAVCIS,ioos:station:WAVCIS:CSI06:1,2010-07-06T22:00:00Z,28.8667,-90.4833,26.38,11111222 
WAVCIS,ioos:station:WAVCIS:CSI06:1,2010-07-06T23:00:00Z,28.8667,-90.4833,26.67,11111222 
WAVCIS,ioos:station:WAVCIS:CSI06:1,2010-07-07T00:00:00Z,28.8667,-90.4833,25.87,11111222 
WAVCIS,ioos:station:WAVCIS:CSI06:1,2010-07-07T01:00:00Z,28.8667,-90.4833,26.69,11111222 
WAVCIS,ioos:station:WAVCIS:CSI06:1,2010-07-07T02:00:00Z,28.8667,-90.4833,25.65,11111222 
WAVCIS,ioos:station:WAVCIS:CSI06:1,2010-07-07T03:00:00Z,28.8667,-90.4833,26.61,11111222 
WAVCIS,ioos:station:WAVCIS:CSI06:1,2010-07-07T04:00:00Z,28.8667,-90.4833,26.93,11111222 
WAVCIS,ioos:station:WAVCIS:CSI06:1,2010-07-07T05:00:00Z,28.8667,-90.4833,26.89,11111222 
WAVCIS,ioos:station:WAVCIS:CSI06:1,2010-07-07T06:00:00Z,28.8667,-90.4833,27.02,11111222 
WAVCIS,ioos:station:WAVCIS:CSI06:1,2010-07-07T07:00:00Z,28.8667,-90.4833,26.97,11111222 
WAVCIS,ioos:station:WAVCIS:CSI06:1,2010-07-07T08:00:00Z,28.8667,-90.4833,27.08,11111222 
WAVCIS,ioos:station:WAVCIS:CSI06:1,2010-07-07T09:00:00Z,28.8667,-90.4833,27.25,11111222 
WAVCIS,ioos:station:WAVCIS:CSI06:1,2010-07-07T10:00:00Z,28.8667,-90.4833,27.41,11111222 
WAVCIS,ioos:station:WAVCIS:CSI06:1,2010-07-07T11:00:00Z,28.8667,-90.4833,27.47,11111222 
WAVCIS,ioos:station:WAVCIS:CSI06:1,2010-07-07T12:00:00Z,28.8667,-90.4833,25.21,11111222 
WAVCIS,ioos:station:WAVCIS:CSI06:1,2010-07-07T13:00:00Z,28.8667,-90.4833,23.59,11111222 
WAVCIS,ioos:station:WAVCIS:CSI06:1,2010-07-07T14:00:00Z,28.8667,-90.4833,23.57,11111222 
WAVCIS,ioos:station:WAVCIS:CSI06:1,2010-07-07T15:00:00Z,28.8667,-90.4833,23.56,11111222 
WAVCIS,ioos:station:WAVCIS:CSI06:1,2010-07-07T16:00:00Z,28.8667,-90.4833,25.19,11111222 
WAVCIS,ioos:station:WAVCIS:CSI06:1,2010-07-07T17:00:00Z,28.8667,-90.4833,27.22,11111222 
WAVCIS,ioos:station:WAVCIS:CSI06:1,2010-07-07T18:00:00Z,28.8667,-90.4833,25.28,11111222 
WAVCIS,ioos:station:WAVCIS:CSI06:1,2010-07-07T19:00:00Z,28.8667,-90.4833,24.19,11111222 
WAVCIS,ioos:station:WAVCIS:CSI06:1,2010-07-07T20:00:00Z,28.8667,-90.4833,25.81,11111222 
WAVCIS,ioos:station:WAVCIS:CSI06:1,2010-07-07T21:00:00Z,28.8667,-90.4833,25.36,11111222 
WAVCIS,ioos:station:WAVCIS:CSI06:1,2010-07-07T22:00:00Z,28.8667,-90.4833,24.28,11111222 
WAVCIS,ioos:station:WAVCIS:CSI06:1,2010-07-07T23:00:00Z,28.8667,-90.4833,25.69,11111222 
WAVCIS,ioos:station:WAVCIS:CSI06:1,2010-07-08T00:00:00Z,28.8667,-90.4833,26.07,11111222 
WAVCIS,ioos:station:WAVCIS:CSI06:1,2010-07-08T01:00:00Z,28.8667,-90.4833,26.42,11111222 
WAVCIS,ioos:station:WAVCIS:CSI06:1,2010-07-08T02:00:00Z,28.8667,-90.4833,26.81,11111222 
WAVCIS,ioos:station:WAVCIS:CSI06:1,2010-07-08T03:00:00Z,28.8667,-90.4833,27.49,11111222 
WAVCIS,ioos:station:WAVCIS:CSI06:1,2010-07-08T04:00:00Z,28.8667,-90.4833,27.45,11111222 
WAVCIS,ioos:station:WAVCIS:CSI06:1,2010-07-08T05:00:00Z,28.8667,-90.4833,27.41,11111222 
WAVCIS,ioos:station:WAVCIS:CSI06:1,2010-07-08T06:00:00Z,28.8667,-90.4833,27.27,11111222 
WAVCIS,ioos:station:WAVCIS:CSI06:1,2010-07-08T07:00:00Z,28.8667,-90.4833,27.14,11111222 
WAVCIS,ioos:station:WAVCIS:CSI06:1,2010-07-08T08:00:00Z,28.8667,-90.4833,27.0,11111222 
WAVCIS,ioos:station:WAVCIS:CSI06:1,2010-07-08T09:00:00Z,28.8667,-90.4833,27.01,11111222 
WAVCIS,ioos:station:WAVCIS:CSI06:1,2010-07-08T10:00:00Z,28.8667,-90.4833,26.94,11111222 
WAVCIS,ioos:station:WAVCIS:CSI06:1,2010-07-08T11:00:00Z,28.8667,-90.4833,26.92,11111222 
WAVCIS,ioos:station:WAVCIS:CSI06:1,2010-07-08T12:00:00Z,28.8667,-90.4833,27.02,11111222 
WAVCIS,ioos:station:WAVCIS:CSI06:1,2010-07-08T13:00:00Z,28.8667,-90.4833,27.11,11111222 
WAVCIS,ioos:station:WAVCIS:CSI06:1,2010-07-08T14:00:00Z,28.8667,-90.4833,27.29,11111222 
WAVCIS,ioos:station:WAVCIS:CSI06:1,2010-07-08T15:00:00Z,28.8667,-90.4833,27.29,11111222 
WAVCIS,ioos:station:WAVCIS:CSI06:1,2010-07-08T16:00:00Z,28.8667,-90.4833,27.45,11111222 
WAVCIS,ioos:station:WAVCIS:CSI06:1,2010-07-08T17:00:00Z,28.8667,-90.4833,27.52,11111222 
WAVCIS,ioos:station:WAVCIS:CSI06:1,2010-07-08T18:00:00Z,28.8667,-90.4833,27.43,11111222 
WAVCIS,ioos:station:WAVCIS:CSI06:1,2010-07-08T19:00:00Z,28.8667,-90.4833,27.6,11111222 
WAVCIS,ioos:station:WAVCIS:CSI06:1,2010-07-08T20:00:00Z,28.8667,-90.4833,27.67,11111222 
WAVCIS,ioos:station:WAVCIS:CSI06:1,2010-07-08T21:00:00Z,28.8667,-90.4833,27.73,11111222 
WAVCIS,ioos:station:WAVCIS:CSI06:1,2010-07-08T22:00:00Z,28.8667,-90.4833,27.83,11111222 
WAVCIS,ioos:station:WAVCIS:CSI06:1,2010-07-08T23:00:00Z,28.8667,-90.4833,27.93,11111222 
WAVCIS,ioos:station:WAVCIS:CSI06:1,2010-07-09T00:00:00Z,28.8667,-90.4833,27.66,11111222 
WAVCIS,ioos:station:WAVCIS:CSI06:1,2010-07-09T01:00:00Z,28.8667,-90.4833,27.35,11111222 
WAVCIS,ioos:station:WAVCIS:CSI06:1,2010-07-09T02:00:00Z,28.8667,-90.4833,26.99,11111222 
WAVCIS,ioos:station:WAVCIS:CSI06:1,2010-07-09T03:00:00Z,28.8667,-90.4833,26.95,11111222 
WAVCIS,ioos:station:WAVCIS:CSI06:1,2010-07-09T04:00:00Z,28.8667,-90.4833,26.72,11111222 
WAVCIS,ioos:station:WAVCIS:CSI06:1,2010-07-09T05:00:00Z,28.8667,-90.4833,26.54,11111222 
WAVCIS,ioos:station:WAVCIS:CSI06:1,2010-07-09T06:00:00Z,28.8667,-90.4833,26.52,11111222 
WAVCIS,ioos:station:WAVCIS:CSI06:1,2010-07-09T07:00:00Z,28.8667,-90.4833,26.66,11111222 
WAVCIS,ioos:station:WAVCIS:CSI06:1,2010-07-09T08:00:00Z,28.8667,-90.4833,26.52,11111222 
WAVCIS,ioos:station:WAVCIS:CSI06:1,2010-07-09T09:00:00Z,28.8667,-90.4833,26.56,11111222 
WAVCIS,ioos:station:WAVCIS:CSI06:1,2010-07-09T10:00:00Z,28.8667,-90.4833,26.41,11111222 
WAVCIS,ioos:station:WAVCIS:CSI06:1,2010-07-09T11:00:00Z,28.8667,-90.4833,26.18,11111222 
WAVCIS,ioos:station:WAVCIS:CSI06:1,2010-07-09T12:00:00Z,28.8667,-90.4833,26.27,11111222 
WAVCIS,ioos:station:WAVCIS:CSI06:1,2010-07-09T13:00:00Z,28.8667,-90.4833,26.53,11111222 
WAVCIS,ioos:station:WAVCIS:CSI06:1,2010-07-09T14:00:00Z,28.8667,-90.4833,26.59,11111222 
WAVCIS,ioos:station:WAVCIS:CSI06:1,2010-07-09T15:00:00Z,28.8667,-90.4833,27.01,11111222 
WAVCIS,ioos:station:WAVCIS:CSI06:1,2010-07-09T16:00:00Z,28.8667,-90.4833,27.15,11111222 
WAVCIS,ioos:station:WAVCIS:CSI06:1,2010-07-09T17:00:00Z,28.8667,-90.4833,27.22,11111222 
WAVCIS,ioos:station:WAVCIS:CSI06:1,2010-07-09T18:00:00Z,28.8667,-90.4833,27.57,11111222 
WAVCIS,ioos:station:WAVCIS:CSI06:1,2010-07-09T19:00:00Z,28.8667,-90.4833,27.73,11111222 
WAVCIS,ioos:station:WAVCIS:CSI06:1,2010-07-09T20:00:00Z,28.8667,-90.4833,27.94,11111222 
WAVCIS,ioos:station:WAVCIS:CSI06:1,2010-07-09T21:00:00Z,28.8667,-90.4833,27.58,11111222 
WAVCIS,ioos:station:WAVCIS:CSI06:1,2010-07-09T22:00:00Z,28.8667,-90.4833,27.51,11111222 
WAVCIS,ioos:station:WAVCIS:CSI06:1,2010-07-09T23:00:00Z,28.8667,-90.4833,27.8,11111222 
WAVCIS,ioos:station:WAVCIS:CSI06:1,2010-07-10T00:00:00Z,28.8667,-90.4833,27.79,11111222 
WAVCIS,ioos:station:WAVCIS:CSI06:1,2010-07-10T01:00:00Z,28.8667,-90.4833,27.25,11111222 
WAVCIS,ioos:station:WAVCIS:CSI06:1,2010-07-10T02:00:00Z,28.8667,-90.4833,27.0,11111222 
WAVCIS,ioos:station:WAVCIS:CSI06:1,2010-07-10T03:00:00Z,28.8667,-90.4833,26.99,11111222 
WAVCIS,ioos:station:WAVCIS:CSI06:1,2010-07-10T04:00:00Z,28.8667,-90.4833,26.99,11111222 
WAVCIS,ioos:station:WAVCIS:CSI06:1,2010-07-10T05:00:00Z,28.8667,-90.4833,26.89,11111222 
WAVCIS,ioos:station:WAVCIS:CSI06:1,2010-07-10T06:00:00Z,28.8667,-90.4833,26.86,11111222 
WAVCIS,ioos:station:WAVCIS:CSI06:1,2010-07-10T07:00:00Z,28.8667,-90.4833,26.68,11111222 
WAVCIS,ioos:station:WAVCIS:CSI06:1,2010-07-10T08:00:00Z,28.8667,-90.4833,26.56,11111222 
WAVCIS,ioos:station:WAVCIS:CSI06:1,2010-07-10T09:00:00Z,28.8667,-90.4833,26.45,11111222 
WAVCIS,ioos:station:WAVCIS:CSI06:1,2010-07-10T10:00:00Z,28.8667,-90.4833,26.39,11111222 
WAVCIS,ioos:station:WAVCIS:CSI06:1,2010-07-10T11:00:00Z,28.8667,-90.4833,26.46,11111222 
WAVCIS,ioos:station:WAVCIS:CSI06:1,2010-07-10T12:00:00Z,28.8667,-90.4833,26.45,11111222 
WAVCIS,ioos:station:WAVCIS:CSI06:1,2010-07-10T13:00:00Z,28.8667,-90.4833,26.69,11111222 
WAVCIS,ioos:station:WAVCIS:CSI06:1,2010-07-10T14:00:00Z,28.8667,-90.4833,26.83,11111222 
WAVCIS,ioos:station:WAVCIS:CSI06:1,2010-07-10T15:00:00Z,28.8667,-90.4833,26.92,11111222 
WAVCIS,ioos:station:WAVCIS:CSI06:1,2010-07-10T16:00:00Z,28.8667,-90.4833,27.05,11111222 
WAVCIS,ioos:station:WAVCIS:CSI06:1,2010-07-10T17:00:00Z,28.8667,-90.4833,27.25,11111222 
WAVCIS,ioos:station:WAVCIS:CSI06:1,2010-07-10T18:00:00Z,28.8667,-90.4833,27.44,11111222 
WAVCIS,ioos:station:WAVCIS:CSI06:1,2010-07-10T19:00:00Z,28.8667,-90.4833,27.48,11111222 
WAVCIS,ioos:station:WAVCIS:CSI06:1,2010-07-10T20:00:00Z,28.8667,-90.4833,27.64,11111222 
WAVCIS,ioos:station:WAVCIS:CSI06:1,2010-07-10T21:00:00Z,28.8667,-90.4833,27.77,11111222 
WAVCIS,ioos:station:WAVCIS:CSI06:1,2010-07-10T22:00:00Z,28.8667,-90.4833,27.87,11111222 
WAVCIS,ioos:station:WAVCIS:CSI06:1,2010-07-10T23:00:00Z,28.8667,-90.4833,27.71,11111222 
WAVCIS,ioos:station:WAVCIS:CSI06:1,2010-07-11T00:00:00Z,28.8667,-90.4833,27.67,11111222 
WAVCIS,ioos:station:WAVCIS:CSI06:1,2010-07-11T01:00:00Z,28.8667,-90.4833,27.68,11111222 
WAVCIS,ioos:station:WAVCIS:CSI06:1,2010-07-11T02:00:00Z,28.8667,-90.4833,27.64,11111222 
WAVCIS,ioos:station:WAVCIS:CSI06:1,2010-07-11T03:00:00Z,28.8667,-90.4833,27.63,11111222 
WAVCIS,ioos:station:WAVCIS:CSI06:1,2010-07-11T04:00:00Z,28.8667,-90.4833,27.56,11111222 
WAVCIS,ioos:station:WAVCIS:CSI06:1,2010-07-11T05:00:00Z,28.8667,-90.4833,27.44,11111222 
WAVCIS,ioos:station:WAVCIS:CSI06:1,2010-07-11T06:00:00Z,28.8667,-90.4833,27.18,11111222 
WAVCIS,ioos:station:WAVCIS:CSI06:1,2010-07-11T07:00:00Z,28.8667,-90.4833,27.04,11111222 
WAVCIS,ioos:station:WAVCIS:CSI06:1,2010-07-11T08:00:00Z,28.8667,-90.4833,26.94,11111222 
WAVCIS,ioos:station:WAVCIS:CSI06:1,2010-07-11T09:00:00Z,28.8667,-90.4833,26.89,11111222 
WAVCIS,ioos:station:WAVCIS:CSI06:1,2010-07-11T10:00:00Z,28.8667,-90.4833,26.89,11111222 
WAVCIS,ioos:station:WAVCIS:CSI06:1,2010-07-11T11:00:00Z,28.8667,-90.4833,26.86,11111222 
WAVCIS,ioos:station:WAVCIS:CSI06:1,2010-07-11T12:00:00Z,28.8667,-90.4833,26.85,11111222 
WAVCIS,ioos:station:WAVCIS:CSI06:1,2010-07-11T13:00:00Z,28.8667,-90.4833,26.85,11111222 
WAVCIS,ioos:station:WAVCIS:CSI06:1,2010-07-11T14:00:00Z,28.8667,-90.4833,27.07,11111222 
WAVCIS,ioos:station:WAVCIS:CSI06:1,2010-07-11T15:00:00Z,28.8667,-90.4833,27.11,11111222 
WAVCIS,ioos:station:WAVCIS:CSI06:1,2010-07-11T16:00:00Z,28.8667,-90.4833,27.33,11111222 
WAVCIS,ioos:station:WAVCIS:CSI06:1,2010-07-11T17:00:00Z,28.8667,-90.4833,27.51,11111222 
WAVCIS,ioos:station:WAVCIS:CSI06:1,2010-07-11T18:00:00Z,28.8667,-90.4833,27.57,11111222 
WAVCIS,ioos:station:WAVCIS:CSI06:1,2010-07-11T19:00:00Z,28.8667,-90.4833,27.82,11111222 
WAVCIS,ioos:station:WAVCIS:CSI06:1,2010-07-11T20:00:00Z,28.8667,-90.4833,27.9,11111222 
WAVCIS,ioos:station:WAVCIS:CSI06:1,2010-07-11T21:00:00Z,28.8667,-90.4833,27.99,11111222 
WAVCIS,ioos:station:WAVCIS:CSI06:1,2010-07-11T22:00:00Z,28.8667,-90.4833,28.01,11111222 
WAVCIS,ioos:station:WAVCIS:CSI06:1,2010-07-11T23:00:00Z,28.8667,-90.4833,27.97,11111222 
WAVCIS,ioos:station:WAVCIS:CSI06:1,2010-07-12T00:00:00Z,28.8667,-90.4833,27.94,11111222 
WAVCIS,ioos:station:WAVCIS:CSI06:1,2010-07-12T01:00:00Z,28.8667,-90.4833,27.77,11111222 
WAVCIS,ioos:station:WAVCIS:CSI06:1,2010-07-12T02:00:00Z,28.8667,-90.4833,27.67,11111222 
WAVCIS,ioos:station:WAVCIS:CSI06:1,2010-07-12T03:00:00Z,28.8667,-90.4833,27.75,11111222 
WAVCIS,ioos:station:WAVCIS:CSI06:1,2010-07-12T04:00:00Z,28.8667,-90.4833,27.69,11111222 